Torna al catalogo

YAOGAN 30 DEB

AttivoMilitareSSO
NORAD 42676·DEBRIS·🇨🇳 China

Lanciato May 15, 2016 da Jiuquan Satellite Launch Center

Loading…

Prossimi Passaggi (prossime 24 ore)

TLE

AggiornatoSource: Space-Track

Epoca: Sep 13, 2026, 07:34 UTC

1 42676U 16029B   26256.31572310  .00001763  00000-0  50458-3 0  9998
2 42676  98.0461  76.6729 0230774 191.3978 168.1930 14.31787750524678

Traccia YAOGAN 30 DEB in tempo reale con AllMySat

Download on the App Store